Regional Weather Roundup
Issued by NWS

Home | Current Version | Previous Version | Text Only | Print | Product List | Glossary On
Versions: 1 2 3 4 5 6 7 8 9 10 11 12 13 14 15 16 17 18 19 20 21 22 23 24 25 26 27 28 29 30 31 32 33 34 35 36 37 38 39 40 41 42 43 44 45 46 47 48 49 50
000
ASUS43 KDTX 221810
RWRMI
MICHIGAN HOURLY REGIONAL WEATHER ROUNDUP
NATIONAL WEATHER SERVICE DETROIT/PONTIAC MI
200 PM EDT TUE AUG 22 2017

NOTE: "FAIR" INDICATES FEW OR NO CLOUDS BELOW 12,000 FEET WITH NO
SIGNIFICANT WEATHER AND/OR OBSTRUCTION TO VISIBILITY.

MIZ047>049-052>055-059>063-066>070-074>076-081>083-221900-
SOUTHEAST LOWER MICHIGAN

CITY           SKY/WX    TMP DP  RH WIND       PRES   REMARKS
ADRIAN         CLOUDY    78  66  66 W10G21    29.83F
6HR MIN TEMP:  70; 6HR MAX TEMP:  77; 6HR PCP:  0.01;

ALMA           PTSUNNY   76  65  68 W17G23    29.78S
ANN ARBOR      PTSUNNY   81  66  60 SW16      29.79F
BAD AXE        CLOUDY    75  65  69 W14G26    29.71S
6HR MIN TEMP:  70; 6HR MAX TEMP:  75;

CARO           CLOUDY    77  64  64 W14G28    29.73S
DETROIT CITY   CLOUDY    78  66  66 W15G23    29.77F
6HR MIN TEMP:  73; 6HR MAX TEMP:  79; 6HR PCP: TRACE;

DETROIT        CLOUDY    77  66  68 SW17      29.79F
6HR MIN TEMP:  73; 6HR MAX TEMP:  78; 6HR PCP: TRACE;

FLINT          PTSUNNY   77  64  64 W18G28    29.76S
6HR MIN TEMP:  69; 6HR MAX TEMP:  77; 6HR PCP:  0.07;

GROSSE ILE     PTSUNNY   78  67  68 W12G18    29.78F
6HR MIN TEMP:  72; 6HR MAX TEMP:  79;

HILLSDALE      CLOUDY    77  64  65 W16G23    29.83F
HOWELL         CLOUDY    70  66  85 W14       29.80R
6HR MIN TEMP:  69; 6HR MAX TEMP:  76; 6HR PCP:  0.16;


CITY           SKY/WX    TMP DP  RH WIND       PRES   REMARKS
JACKSON        PTSUNNY   76  65  68 W15       29.81S
6HR MIN TEMP:  70; 6HR MAX TEMP:  77; 6HR PCP:  0.03;

LAMBERTVILLE   CLOUDY    76  67  73 SW10G17   29.82S
6HR MIN TEMP:  71; 6HR MAX TEMP:  77;

LANSING        CLOUDY    74  61  63 W18G28    29.81R
6HR MIN TEMP:  69; 6HR MAX TEMP:  76; 6HR PCP:  0.05;

LAPEER         CLOUDY    78  65  64 W14G29    29.75S
6HR MIN TEMP:  70; 6HR MAX TEMP:  78; 6HR PCP:  0.03;

MASON          CLOUDY    76  64  67 W21G26    29.81R
MONROE         CLOUDY    77  69  74 SW15      29.80F
6HR MIN TEMP:  71; 6HR MAX TEMP:  78;

MT. CLEMENS    PTSUNNY   81  67  63 SW17G24   29.74F
6HR MIN TEMP:  74; 6HR MAX TEMP:  81; 6HR PCP: TRACE;

PONTIAC        CLOUDY    78  65  63 SW17G26   29.76F
6HR MIN TEMP:  70; 6HR MAX TEMP:  78; 6HR PCP:  0.05;

PORT HOPE        N/A     76  65  68 W14G26    29.67S
6HR MIN TEMP:  71; 6HR MAX TEMP:  76; 6HR PCP:  0.34;

PORT HURON     CLOUDY    79  66  65 SW9G21    29.74F
TRI CITIES     PTSUNNY   76  66  71 W18G29    29.75R
6HR MIN TEMP:  71; 6HR MAX TEMP:  77; 6HR PCP:  0.07;

MIDLAND        FAIR      78  64  61 W14G21    29.73S
6HR MIN TEMP:  69; 6HR MAX TEMP:  78; 6HR PCP:  0.50;

TROY           CLOUDY    81  64  57 SW17G23   29.78F
SAGINAW HB     CLOUDY    73  61  64 W14G22    29.74R
$$
MIZ043>046-050>051-056>058-064>065-071>073-077>080-221900-
SOUTHWEST LOWER MICHIGAN

CITY           SKY/WX    TMP DP  RH WIND       PRES   REMARKS
BATTLE CREEK   CLOUDY    73  65  75 W17       29.86R
6HR MIN TEMP:  70; 6HR MAX TEMP:  76; 6HR PCP:  0.05;

BENTON HARBOR  CLOUDY    74  63  68 W14G21    29.88R
6HR MIN TEMP:  71; 6HR MAX TEMP:  76;

BIG RAPIDS     CLOUDY    70  58  65 NW14G23   29.80R
6HR MIN TEMP:  68; 6HR MAX TEMP:  72;

COLDWATER      CLOUDY    77  67  71 W17G23    29.84S
6HR MIN TEMP:  69; 6HR MAX TEMP:  77;

FREMONT        PTSUNNY   72  63  72 N18       29.81R
HOLLAND        CLOUDY    74  64  71 W13G24    29.85R
6HR MIN TEMP:  71; 6HR MAX TEMP:  74; 6HR PCP: TRACE;

GRAND RAPIDS   CLOUDY    72  64  76 W15G24    29.82R
6HR MIN TEMP:  71; 6HR MAX TEMP:  75; 6HR PCP:  0.09;

IONIA          CLOUDY    73  62  68 W13G23    29.80S
6HR MIN TEMP:  70; 6HR MAX TEMP:  75; 6HR PCP:  0.03;

KALAMAZOO      CLOUDY    73  61  65 W10G21    29.86R
6HR MIN TEMP:  71; 6HR MAX TEMP:  76; 6HR PCP:  0.03;

LUDINGTON      PTSUNNY   70  56  62 NW14G20   29.83R
6HR MIN TEMP:  67; 6HR MAX TEMP:  72;

MARSHALL       CLOUDY    74  64  69 W17       29.83R
6HR MIN TEMP:  69; 6HR MAX TEMP:  76; 6HR PCP:  0.06;

MOUNT PLEASANT MOSUNNY   78  62  58 W12G23    29.75S
6HR MIN TEMP:  72; 6HR MAX TEMP:  78; 6HR PCP:  0.01;

MUSKEGON       PTSUNNY   75  62  64 NW16G23   29.82S
6HR MIN TEMP:  72; 6HR MAX TEMP:  76;

SOUTH HAVEN    CLOUDY    74  64  73 W13G20    29.87R
$$
MIZ016>042-221900-
NORTHERN LOWER MICHIGAN

CITY           SKY/WX    TMP DP  RH WIND       PRES   REMARKS
ALPENA         CLOUDY    68  60  75 W10G22    29.70R
6HR MIN TEMP:  67; 6HR MAX TEMP:  77; 6HR PCP:  0.07;

BEAVER ISLAND  PTSUNNY   68  54  62 W14G21    29.77R
6HR MIN TEMP:  61; 6HR MAX TEMP:  69;

BELLAIRE       CLOUDY    65  55  69 NW7       29.79R
6HR MIN TEMP:  62; 6HR MAX TEMP:  70;

CADILLAC       PTSUNNY   69  54  59 NW14G21   29.80R
CHARLEVOIX     PTSUNNY   67  55  65 NW18G26   29.81R
FRANKFORT      MOSUNNY   70  58  64 NW12G23   29.82S
GAYLORD        PTSUNNY   63  53  70 W13G23    29.77R
6HR MIN TEMP:  60; 6HR MAX TEMP:  67; 6HR PCP:  0.05;

GRAYLING       PTSUNNY   68  55  62 W15G24    29.78R
6HR MIN TEMP:  61; 6HR MAX TEMP:  70;

HARBOR SPRINGS CLOUDY    66  54  64 NW15G23   29.76R
HOUGHTON LAKE  PTSUNNY   69  57  65 NW16G22   29.79R
6HR MIN TEMP:  64; 6HR MAX TEMP:  72; 6HR PCP: TRACE;

MANISTEE       PTSUNNY   69  58  67 NW13G23   29.83R
OSCODA         MOSUNNY   73  62  69 NW28G36   29.68R
6HR MIN TEMP:  70; 6HR MAX TEMP:  78; 6HR PCP:  0.04;

PELLSTON       CLOUDY    66  55  67 NW20G29   29.75R
6HR MIN TEMP:  63; 6HR MAX TEMP:  69; 6HR PCP:  0.45;

ROGERS CITY    CLOUDY    68  58  71 NW12G20   29.70R
TRAVERSE CITY  PTSUNNY   68  54  60 NW15G24   29.79R
6HR MIN TEMP:  64; 6HR MAX TEMP:  71; 6HR PCP:  0.02;

$$
MIZ007>008-015-221900-
EASTERN UPPER MICHIGAN

CITY           SKY/WX    TMP DP  RH WIND       PRES   REMARKS
KINROSS        PTSUNNY   66  53  63 NW23G31   29.68R
6HR MIN TEMP:  60; 6HR MAX TEMP:  68;

MACKINAC ISLAN CLOUDY    65  54  67 W16G25    29.72R
6HR MIN TEMP:  62; 6HR MAX TEMP:  68; 6HR PCP:  0.05;

NEWBERRY       PTSUNNY   65  54  69 NW14G23   29.74R
6HR MIN TEMP:  58; 6HR MAX TEMP:  65;

S. S. MARIE    CLOUDY    64  54  69 NW18G37   29.68R
6HR MIN TEMP:  62; 6HR MAX TEMP:  69;

MUNISING         N/A     65  57  75 NW14G24   29.78R
6HR MIN TEMP:  60; 6HR MAX TEMP:  66;

$$
MIZ004>006-011>014-085-221900-
CENTRAL UPPER MICHIGAN

CITY           SKY/WX    TMP DP  RH WIND       PRES   REMARKS
MANISTIQUE     MOSUNNY   69  46  43 NW20G28   29.76R
6HR MIN TEMP:  58; 6HR MAX TEMP:  69;

ESCANABA       PTSUNNY   67  54  63 W14G20    29.79R
6HR MIN TEMP:  62; 6HR MAX TEMP:  70;

SAWYER-GWINN   PTSUNNY   66  48  52 NW20      29.80R
$$
MIZ001>003-009>011-084-221900-
WESTERN UPPER MICHIGAN

CITY           SKY/WX    TMP DP  RH WIND       PRES   REMARKS
IRON MOUNTAIN  MOSUNNY   69  45  41 NW20G31   29.82S
6HR MIN TEMP:  60; 6HR MAX TEMP:  70; 6HR PCP: TRACE;

HOUGHTON       LGT RAIN  65  51  60 W26G37    29.80R
6HR MIN TEMP:  57; 6HR MAX TEMP:  65; 6HR PCP: TRACE;

COPPER HARBOR    N/A     63  52  67 N23G32    29.76S
6HR MIN TEMP:  59; 6HR MAX TEMP:  63;

IRONWOOD       SUNNY     65  50  58 NW17G23   29.90S
6HR MIN TEMP:  56; 6HR MAX TEMP:  65;

$$

ABBREVIATIONS USED IN REMARKS
   TC - TEMPERATURE IN CELSIUS
  WCI - WIND CHILL INDEX
   HX - HEAT INDEX
  VSB - VISIBILITY





USA.gov is the U.S. government's official web portal to all federal, state and local government web resources and services.